This is the latest recevied weather packets stored in our database for station/object HB9FHL-13. If no packets are shown the sender has not sent any weather packets the latest 10 day(s).
| Time | Temp. | Humidity | Pressure | Rain* | Wind** | Luminosity | Snow |
|---|---|---|---|---|---|---|---|
| 1787953874 | 19.44° C | - | 1023.5 hPa | 0 mm | - | - | - |
| 1787953577 | 17.22° C | - | 1016.2 hPa | 1.27 mm | - | - | - |
| 1787953573 | 17.78° C | - | 1021.1 hPa | 1.27 mm | - | - | - |
| 1787953273 | 17.22° C | - | 1016.2 hPa | 1.27 mm | - | - | - |
| 1787953080 | 17.78° C | - | 1017.1 hPa | 1.27 mm | - | - | - |
| 1787952972 | 17.78° C | - | 1017.1 hPa | 1.27 mm | - | - | - |
| 1787952676 | 17.22° C | - | 1021.7 hPa | 1.27 mm | - | - | - |
| 1787952371 | 16.67° C | - | 1019.9 hPa | 1.27 mm | - | - | - |
| 1787952071 | 17.22° C | - | 1019.3 hPa | 1.27 mm | - | - | - |
| 1787951770 | 16.67° C | - | 1019.6 hPa | 1.27 mm | - | - | - |
| 1787951470 | 17.22° C | - | 1023.6 hPa | 1.27 mm | - | - | - |
| 1787951173 | 17.22° C | - | 1018.8 hPa | 1.27 mm | - | - | - |
| 1787951169 | 17.22° C | - | 1018.8 hPa | 1.27 mm | - | - | - |
| 1787950872 | 17.22° C | - | 1021.7 hPa | 1.27 mm | - | - | - |
| 1787950869 | 17.22° C | - | 1021.7 hPa | 1.27 mm | - | - | - |
| 1787950572 | 18.33° C | - | 1018.7 hPa | 1.27 mm | - | - | - |
| 1787950568 | 18.33° C | - | 1018.7 hPa | 1.27 mm | - | - | - |
| 1787950268 | 16.67° C | - | 1020.3 hPa | 1.27 mm | - | - | - |
| 1787949966 | 17.78° C | - | 1022.5 hPa | 1.27 mm | - | - | - |
| 1787949666 | 16.67° C | - | 1016.9 hPa | 1.27 mm | - | - | - |
| 1787949375 | 17.22° C | - | 1016.7 hPa | 1.27 mm | - | - | - |
| 1787949375 | 17.22° C | - | 1016.7 hPa | 1.27 mm | - | - | - |
| 1787949068 | 17.78° C | - | 1015.5 hPa | 1.27 mm | - | - | - |
| 1787949065 | 17.78° C | - | 1015.5 hPa | 1.27 mm | - | - | - |
| 1787948768 | 17.22° C | - | 1020.2 hPa | 1.27 mm | - | - | - |
* Rain since midnight (hover to see other rain measurements)
** Current wind speed in m/s (hover to see current wind gust speed)